| time (UTC) | temp C | wind direction | speed KPH | gust KPH | rain 1hr cm | rain 24hr cm | rain mn cm | humidity % | barometer mb |
| 20260906140032 | 11 | 22 | 0.0 | 1.6 | 0.05 | 0.18 | 0.15 | 97 | 1013.6 |
| 20260906134531 | 11 | 22 | 0.0 | 3.2 | 0.03 | 0.15 | 0.13 | 97 | 1013.5 |
| 20260906133030 | 11 | 85 | 1.6 | 4.8 | 0.00 | 0.13 | 0.13 | 96 | 1013.3 |
| 20260906131530 | 11 | 112 | 0.0 | 0.0 | 0.00 | 0.13 | 0.13 | 96 | 1013.2 |
| 20260906130030 | 11 | 112 | 0.0 | 1.6 | 0.00 | 0.13 | 0.13 | 96 | 1013.2 |
| 20260906124531 | 11 | 157 | 0.0 | 3.2 | 0.00 | 0.13 | 0.13 | 96 | 1013.4 |
| 20260906123032 | 11 | 185 | 1.6 | 4.8 | 0.00 | 0.13 | 0.13 | 96 | 1013.5 |
| 20260906120032 | 11 | 36 | 0.0 | 3.2 | 0.00 | 0.13 | 0.13 | 96 | 1013.5 |
| 20260906113032 | 11 | 327 | 0.0 | 4.8 | 0.03 | 0.13 | 0.13 | 96 | 1013.6 |
| 20260906110107 | 11 | 315 | 0.0 | 4.8 | 0.03 | 0.13 | 0.13 | 95 | 1013.7 |
| 20260906104530 | 11 | 330 | 4.8 | 6.4 | 0.05 | 0.13 | 0.10 | 95 | 1013.9 |
| 20260906103029 | 11 | 346 | 1.6 | 6.4 | 0.03 | 0.10 | 0.10 | 94 | 1013.9 |
| 20260906101528 | 11 | 315 | 0.0 | 4.8 | 0.08 | 0.10 | 0.10 | 94 | 1014.1 |
| 20260906094531 | 12 | 157 | 0.0 | 3.2 | 0.08 | 0.08 | 0.08 | 94 | 1014.0 |
| 20260906093101 | 12 | 132 | 0.0 | 3.2 | 0.08 | 0.08 | 0.03 | 93 | 1014.0 |
| 20260906090031 | 11 | 106 | 0.0 | 1.6 | 0.03 | 0.03 | 0.00 | 92 | 1013.9 |
| 20260906084529 | 11 | 111 | 0.0 | 3.2 | 0.00 | 0.00 | 0.00 | 92 | 1013.9 |
| 20260906083030 | 12 | 67 | 0.0 | 3.2 | 0.00 | 0.00 | 0.00 | 92 | 1014.0 |
| 20260906081530 | 12 | 67 | 0.0 | 1.6 | 0.00 | 0.00 | 0.00 | 92 | 1013.9 |
| 20260906074528 | 11 | 118 | 1.6 | 6.4 | 0.00 | 0.00 | 0.00 | 92 | 1013.8 |
| 20260906073028 | 11 | 167 | 0.0 | 3.2 | 0.00 | 0.00 | 0.00 | 92 | 1013.9 |
| 20260906071530 | 11 | 117 | 0.0 | 1.6 | 0.00 | 0.00 | 0.00 | 92 | 1014.0 |
| 20260906064530 | 11 | 131 | 0.0 | 3.2 | 0.00 | 0.00 | 0.00 | 92 | 1014.2 |
| 20260906063028 | 11 | 336 | 0.0 | 3.2 | 0.00 | 0.00 | 0.00 | 92 | 1014.3 |
| 20260906061529 | 11 | 314 | 0.0 | 0.0 | 0.00 | 0.00 | 0.00 | 91 | 1014.2 |
| 20260906060103 | 11 | 292 | 0.0 | 3.2 | 0.00 | 0.03 | 0.00 | 91 | 1014.4 |
| 20260906054531 | 11 | 292 | 0.0 | 3.2 | 0.00 | 0.03 | 0.00 | 91 | 1014.4 |
| 20260906053032 | 12 | 292 | 0.0 | 0.0 | 0.00 | 0.03 | 0.00 | 90 | 1014.4 |
| 20260906051529 | 12 | 292 | 0.0 | 0.0 | 0.00 | 0.03 | 0.00 | 90 | 1014.4 |
| 20260906050031 | 12 | 292 | 1.6 | 3.2 | 0.00 | 0.03 | 0.00 | 90 | 1014.4 |
| 20260906044532 | 12 | 292 | 0.0 | 0.0 | 0.00 | 0.03 | 0.00 | 89 | 1014.5 |
| 20260906043030 | 12 | 292 | 0.0 | 0.0 | 0.00 | 0.03 | 0.00 | 88 | 1014.5 |
| 20260906041532 | 12 | 292 | 0.0 | 3.2 | 0.00 | 0.03 | 0.00 | 88 | 1014.5 |
| 20260906040029 | 12 | 292 | 0.0 | 4.8 | 0.00 | 0.03 | 0.00 | 87 | 1014.4 |
| 20260906034531 | 12 | 272 | 0.0 | 3.2 | 0.00 | 0.03 | 0.00 | 86 | 1014.2 |
| 20260906031528 | 13 | 200 | 0.0 | 3.2 | 0.00 | 0.03 | 0.00 | 82 | 1013.8 |
| 20260906030030 | 15 | 157 | 1.6 | 4.8 | 0.00 | 0.03 | 0.00 | 80 | 1013.8 |
| 20260906023028 | 16 | 137 | 4.8 | 8.0 | 0.00 | 0.03 | 0.00 | 78 | 1013.7 |
| 20260906021532 | 16 | 162 | 4.8 | 9.7 | 0.00 | 0.03 | 0.00 | 75 | 1013.7 |
| 20260906020145 | 17 | 162 | 4.8 | 9.7 | 0.00 | 0.03 | 0.00 | 72 | 1013.6 |
| 20260906014529 | 17 | 158 | 3.2 | 8.0 | 0.00 | 0.03 | 0.00 | 70 | 1013.6 |
| 20260906013105 | 18 | 175 | 3.2 | 6.4 | 0.00 | 0.03 | 0.00 | 69 | 1013.7 |
| 20260906011531 | 19 | 164 | 3.2 | 9.7 | 0.00 | 0.03 | 0.00 | 68 | 1013.7 |
| 20260906010107 | 19 | 183 | 3.2 | 6.4 | 0.00 | 0.03 | 0.00 | 68 | 1013.9 |
| 20260906003032 | 18 | 169 | 6.4 | 12.9 | 0.00 | 0.03 | 0.00 | 75 | 1014.1 |
| 20260906001605 | 17 | 164 | 3.2 | 11.3 | 0.00 | 0.03 | 0.00 | 78 | 1014.3 |
| 20260906000031 | 16 | 147 | 4.8 | 11.3 | 0.00 | 0.03 | 0.00 | 77 | 1014.4 |
| 20260905233031 | 17 | 166 | 6.4 | 16.1 | 0.00 | 0.03 | 0.00 | 73 | 1014.1 |
| 20260905231528 | 18 | 176 | 4.8 | 12.9 | 0.00 | 0.03 | 0.00 | 70 | 1014.0 |
| 20260905230032 | 18 | 161 | 3.2 | 6.4 | 0.00 | 0.03 | 0.00 | 68 | 1014.0 |
| 20260905224530 | 18 | 311 | 0.0 | 4.8 | 0.00 | 0.03 | 0.00 | 68 | 1013.9 |
| 20260905223028 | 18 | 283 | 0.0 | 0.0 | 0.00 | 0.03 | 0.00 | 68 | 1013.9 |
| 20260905221532 | 20 | 258 | 0.0 | 6.4 | 0.00 | 0.03 | 0.00 | 66 | 1013.9 |
| 20260905220032 | 20 | 309 | 0.0 | 4.8 | 0.00 | 0.03 | 0.00 | 66 | 1014.0 |
| 20260905214532 | 19 | 213 | 1.6 | 4.8 | 0.00 | 0.03 | 0.00 | 69 | 1014.1 |
| 20260905211532 | 18 | 185 | 3.2 | 8.0 | 0.00 | 0.03 | 0.00 | 71 | 1014.4 |
| 20260905210028 | 18 | 187 | 4.8 | 8.0 | 0.00 | 0.03 | 0.00 | 70 | 1014.5 |
| 20260905204532 | 19 | 188 | 6.4 | 11.3 | 0.00 | 0.03 | 0.00 | 69 | 1014.5 |
| 20260905203105 | 20 | 171 | 4.8 | 9.7 | 0.00 | 0.03 | 0.00 | 67 | 1014.5 |
| 20260905201530 | 20 | 207 | 3.2 | 8.0 | 0.00 | 0.03 | 0.00 | 68 | 1014.5 |
| 20260905200030 | 20 | 318 | 1.6 | 8.0 | 0.00 | 0.03 | 0.00 | 68 | 1014.7 |
| 20260905194532 | 20 | 315 | 3.2 | 8.0 | 0.00 | 0.03 | 0.00 | 71 | 1014.8 |
| 20260905193030 | 20 | 300 | 1.6 | 9.7 | 0.00 | 0.03 | 0.00 | 71 | 1015.0 |
| 20260905191541 | 20 | 329 | 3.2 | 8.0 | 0.00 | 0.03 | 0.00 | 73 | 1015.1 |
| 20260905190033 | 20 | 263 | 1.6 | 9.7 | 0.00 | 0.03 | 0.00 | 78 | 1015.3 |
| 20260905184530 | 17 | 297 | 0.0 | 4.8 | 0.00 | 0.03 | 0.00 | 81 | 1015.6 |
| 20260905183031 | 18 | 331 | 3.2 | 9.7 | 0.00 | 0.03 | 0.00 | 84 | 1015.7 |
| 20260905181531 | 16 | 257 | 3.2 | 9.7 | 0.00 | 0.03 | 0.00 | 89 | 1016.0 |
| 20260905180032 | 15 | 251 | 1.6 | 4.8 | 0.00 | 0.03 | 0.00 | 94 | 1016.0 |
| 20260905173030 | 13 | 292 | 1.6 | 4.8 | 0.00 | 0.03 | 0.00 | 96 | 1016.0 |
| 20260905171529 | 13 | 301 | 1.6 | 8.0 | 0.00 | 0.03 | 0.00 | 96 | 1016.0 |
| 20260905164607 | 12 | 270 | 0.0 | 1.6 | 0.00 | 0.03 | 0.00 | 97 | 1016.0 |
| 20260905160031 | 12 | 254 | 0.0 | 4.8 | 0.00 | 0.03 | 0.00 | 97 | 1015.9 |
| 20260905154531 | 11 | 19 | 0.0 | 3.2 | 0.00 | 0.03 | 0.00 | 97 | 1015.9 |
| 20260905153028 | 11 | 22 | 1.6 | 6.4 | 0.00 | 0.03 | 0.00 | 97 | 1015.9 |
| 20260905151530 | 11 | 327 | 1.6 | 4.8 | 0.00 | 0.03 | 0.00 | 97 | 1015.9 |
| 20260905150031 | 11 | 215 | 1.6 | 3.2 | 0.00 | 0.03 | 0.00 | 97 | 1015.8 |
| 20260905144529 | 10 | 360 | 1.6 | 4.8 | 0.00 | 0.03 | 0.00 | 97 | 1015.7 |
| 20260905143030 | 10 | 43 | 3.2 | 6.4 | 0.00 | 0.03 | 0.00 | 97 | 1015.7 |